Bedford County, PA

8:10 AM EST on December 13, 2019 (GMT -0500)
Bedford County

Weather History for KHMZ - October, 2019

Change the Weather History Date:

Tuesday, October 15, 2019

  Actual Average (KAOO) Record (KAOO)
Temperature  
Mean Temperature 48 °F -  
Max Temperature 66 °F 59 °F 83 °F (2017)
Min Temperature 31 °F 39 °F 27 °F (2006)
Degree Days  
Heating Degree Days 16    
Moisture  
Dew Point 37 °F    
Average Humidity 73    
Maximum Humidity 99    
Minimum Humidity 35    
Precipitation  
Precipitation 0.00 in - - ()
Sea Level Pressure  
Sea Level Pressure 30.09 in    
Wind  
Wind Speed 2 mph ()    
Max Wind Speed 12 mph    
Max Gust Speed 16 mph    
Visibility 10.0 miles    
Events      
Averages and records for this station are not official NWS values.
T = Trace of Precipitation, MM = Missing Value Source: Averaged Metar Reports

Daily Weather History Graph

Daily Weather History Graph

Search for Another Location

Airport or City:

Astronomy

Oct. 15, 2019 Rise Set
Actual Time 7:24 AM EDT 6:34 PM EDT
Civil Twilight 6:56 AM EDT 7:01 PM EDT
Nautical Twilight 6:25 AM EDT 7:33 PM EDT
Astronomical Twilight 5:54 AM EDT 8:04 PM EDT
Moon 7:53 PM EDT (10/15) 8:53 AM EDT (10/15)
Length of Visible Light 12h 04m
Length of Day
11h 10m
Full, 97% of the Moon is Illuminated
Oct 15
Full
Oct 21
Last Quarter
Oct 27
New
Nov 4
First Quarter
Nov 12
Full

Hourly Weather History & Observations

Time (EDT) Temp. Windchill Dew Point Humidity Pressure Visibility Wind Dir Wind Speed Gust Speed Precip Events Conditions
12:15 AM 37.4 °F - 36.1 °F 95% 30.12 in 10.0 mi Calm Calm - N/A   Clear
12:35 AM 37.4 °F - 36.5 °F 97% 30.12 in 10.0 mi Calm Calm - N/A   Clear
12:55 AM 36.9 °F - 36.0 °F 97% 30.12 in 10.0 mi Calm Calm - N/A   Clear
1:15 AM 37.2 °F - 36.3 °F 97% 30.12 in 10.0 mi Calm Calm - N/A   Clear
1:35 AM 37.8 °F - 36.7 °F 96% 30.13 in 10.0 mi Calm Calm - N/A   Clear
1:55 AM 36.3 °F - 35.6 °F 97% 30.13 in 10.0 mi Calm Calm - N/A   Clear
2:15 AM 35.4 °F - 34.7 °F 97% 30.13 in 10.0 mi Calm Calm - N/A   Clear
2:35 AM 35.4 °F - 34.7 °F 97% 30.13 in 10.0 mi Calm Calm - N/A   Clear
2:55 AM 35.2 °F - 34.5 °F 97% 30.14 in 10.0 mi Calm Calm - N/A   Clear
3:15 AM 34.7 °F - 34.0 °F 97% 30.14 in 10.0 mi Calm Calm - N/A   Clear
3:35 AM 33.4 °F - 32.9 °F 98% 30.14 in 10.0 mi Calm Calm - N/A   Clear
3:55 AM 34.2 °F - 33.6 °F 98% 30.14 in 10.0 mi Calm Calm - N/A   Clear
4:15 AM 34.0 °F - 33.4 °F 98% 30.14 in 10.0 mi Calm Calm - N/A   Clear
4:35 AM 32.7 °F - 32.2 °F 98% 30.15 in 10.0 mi Calm Calm - N/A   Clear
4:55 AM 34.3 °F - 33.6 °F 97% 30.16 in 10.0 mi Calm Calm - N/A   Clear
5:15 AM 32.7 °F - 32.0 °F 97% 30.16 in 10.0 mi Calm Calm - N/A   Clear
5:35 AM 34.0 °F - 33.4 °F 98% 30.17 in 10.0 mi Calm Calm - N/A   Clear
5:55 AM 32.5 °F - 32.0 °F 98% 30.17 in 10.0 mi Calm Calm - N/A   Clear
6:15 AM 32.2 °F - 32.0 °F 99% 30.17 in 10.0 mi Calm Calm - N/A   Clear
6:35 AM 32.4 °F - 32.0 °F 99% 30.18 in 10.0 mi Calm Calm - N/A   Clear
6:55 AM 32.0 °F - 31.8 °F 99% 30.18 in 10.0 mi Calm Calm - N/A   Clear
7:15 AM 32.0 °F - 31.8 °F 99% 30.19 in 10.0 mi Calm Calm - N/A   Clear
7:35 AM 31.8 °F - 31.1 °F 97% 30.19 in 10.0 mi Calm Calm - N/A   Clear
7:55 AM 32.0 °F - 31.6 °F 99% 30.19 in 10.0 mi Calm Calm - N/A   Scattered Clouds
8:15 AM 32.5 °F - 32.0 °F 98% 30.20 in 10.0 mi Calm Calm - N/A   Scattered Clouds
8:35 AM 35.2 °F - 33.6 °F 94% 30.19 in 10.0 mi Calm Calm - N/A   Clear
8:55 AM 36.1 °F - 35.2 °F 97% 30.19 in 10.0 mi Calm Calm - N/A   Clear
9:15 AM 38.3 °F - 37.2 °F 96% 30.19 in 10.0 mi Calm Calm - N/A   Clear
9:35 AM 41.4 °F - 37.8 °F 87% 30.19 in 10.0 mi Calm Calm - N/A   Clear
9:55 AM 43.2 °F - 38.7 °F 84% 30.20 in 10.0 mi Calm Calm - N/A   Clear
10:15 AM 44.8 °F - 39.2 °F 81% 30.19 in 10.0 mi Calm Calm - N/A   Clear
10:35 AM 46.4 °F - 38.8 °F 75% 30.19 in 10.0 mi Calm Calm - N/A   Clear
10:55 AM 48.2 °F - 39.2 °F 71% 30.18 in 10.0 mi Calm Calm - N/A   Clear
11:15 AM 51.6 °F - 40.1 °F 65% 30.17 in 10.0 mi Calm Calm - N/A   Clear
11:35 AM 52.9 °F - 40.8 °F 64% 30.16 in 10.0 mi Calm Calm - N/A   Clear
11:55 AM 55.0 °F - 40.5 °F 58% 30.15 in 10.0 mi SE 4.6 mph - N/A   Clear
12:15 PM 55.8 °F - 39.7 °F 55% 30.15 in 10.0 mi Calm Calm - N/A   Clear
12:35 PM 57.0 °F - 39.6 °F 52% 30.14 in 10.0 mi SE 3.5 mph - N/A   Clear
12:55 PM 58.5 °F - 39.9 °F 50% 30.13 in 10.0 mi Calm Calm - N/A   Clear
1:15 PM 60.4 °F - 40.1 °F 47% 30.12 in 10.0 mi ESE 4.6 mph - N/A   Clear
1:35 PM 61.3 °F - 40.1 °F 46% 30.10 in 10.0 mi ESE 8.1 mph - N/A   Clear
1:55 PM 62.4 °F - 39.4 °F 43% 30.09 in 10.0 mi Calm Calm - N/A   Clear
2:15 PM 64.9 °F - 40.1 °F 40% 30.08 in 10.0 mi South 5.8 mph - N/A   Clear
2:35 PM 65.8 °F - 39.0 °F 37% 30.07 in 10.0 mi SSE 6.9 mph - N/A   Clear
2:55 PM 65.3 °F - 37.6 °F 36% 30.06 in 10.0 mi SSE 11.5 mph 16.1 mph N/A   Clear
3:35 PM 66.0 °F - 37.8 °F 35% 30.04 in 10.0 mi South 6.9 mph - N/A   Clear
3:55 PM 66.0 °F - 37.8 °F 35% 30.02 in 10.0 mi SSE 10.4 mph - N/A   Clear
4:15 PM 65.8 °F - 37.2 °F 35% 30.02 in 10.0 mi SSE 9.2 mph - N/A   Clear
4:35 PM 65.8 °F - 37.6 °F 35% 30.01 in 10.0 mi SSE 8.1 mph - N/A   Clear
4:55 PM 65.7 °F - 37.8 °F 36% 30.00 in 10.0 mi SE 11.5 mph - N/A   Clear
5:15 PM 64.9 °F - 37.9 °F 37% 30.00 in 10.0 mi SSE 10.4 mph - N/A   Clear
5:35 PM 64.4 °F - 38.5 °F 38% 30.00 in 10.0 mi SSE 10.4 mph - N/A   Clear
5:55 PM 63.5 °F - 38.3 °F 39% 30.00 in 10.0 mi SSE 10.4 mph - N/A   Clear
6:15 PM 62.2 °F - 38.5 °F 41% 30.00 in 10.0 mi SSE 8.1 mph - N/A   Clear
6:35 PM 61.3 °F - 38.5 °F 43% 30.00 in 10.0 mi SSE 9.2 mph - N/A   Clear
6:55 PM 60.3 °F - 38.8 °F 45% 29.99 in 10.0 mi SSE 8.1 mph - N/A   Clear
7:15 PM 59.9 °F - 38.8 °F 46% 29.99 in 10.0 mi SSE 8.1 mph - N/A   Clear
7:35 PM 59.0 °F - 39.2 °F 48% 29.99 in 10.0 mi SSE 6.9 mph - N/A   Clear
7:55 PM 58.1 °F - 39.2 °F 49% 29.99 in 10.0 mi SSE 8.1 mph - N/A   Clear
8:15 PM 59.0 °F - 39.4 °F 48% 29.99 in 10.0 mi SE 8.1 mph - N/A   Clear
8:35 PM 57.4 °F - 39.6 °F 51% 29.98 in 10.0 mi SSE 5.8 mph - N/A   Clear
8:55 PM 50.4 °F - 39.9 °F 67% 29.98 in 10.0 mi Calm Calm - N/A   Clear
9:15 PM 47.8 °F - 40.1 °F 75% 29.98 in 10.0 mi Calm Calm - N/A   Clear
9:35 PM 45.0 °F - 39.9 °F 82% 29.98 in 10.0 mi Calm Calm - N/A   Clear
9:55 PM 46.2 °F - 40.1 °F 79% 29.97 in 10.0 mi Calm Calm - N/A   Clear
10:15 PM 44.1 °F - 39.4 °F 84% 29.97 in 10.0 mi Calm Calm - N/A   Clear
10:35 PM 44.4 °F - 40.1 °F 85% 29.97 in 10.0 mi Calm Calm - N/A   Clear
10:55 PM 42.4 °F - 39.6 °F 90% 29.96 in 10.0 mi Calm Calm - N/A   Clear
11:15 PM 43.5 °F - 40.6 °F 90% 29.96 in 10.0 mi Calm Calm - N/A   Clear
11:35 PM 43.5 °F 41.9 °F 40.1 °F 88% 29.95 in 10.0 mi NNW 3.5 mph - N/A   Clear
11:55 PM 42.8 °F - 39.7 °F 89% 29.94 in 10.0 mi Calm Calm - N/A   Clear